QPF
0.03 0.03 0.03 0.02 0.02 0.02 0.02 0.02 0.02 0.02 0.02 0.02 0.02 0.03 0.03 0.03 0.02 0.01 0.01 0.01 0.01 0.01 0.01 0.01 0.01 0.01 0.01 0.02 0.02 0.03 0.03 0.03 0.02 0.02 0.03 0.02 0.02 0.01 0.01 0.01 0.01 0.01 0.01
0.03 0.02 0.01 0.01 0.01 0.01 0.01 0.01 0.01 0.02 0.02 0.02 0.02 0.03 0.03 0.03 0.02 0.02 0.01 0.01 0.02 0.03 0.02 0.02 0.01 0.01 0.01 0.01 0.01 0.01 0.02 0.02 0.02 0.02 0.03 0.02 0.01 0.01 0.01 0.01 0.01 0.01 0.01
0.05 0.03 0.01 0.01 0.01 0.00 0.00 0.01 0.01 0.02 0.02 0.03 0.03 0.03 0.04 0.04 0.03 0.02 0.02 0.02 0.02 0.03 0.03 0.04 0.04 0.03 0.02 0.01 0.01 0.01 0.01 0.02 0.02 0.02 0.03 0.02 0.02 0.01 0.02 0.02 0.01 0.01 0.01
0.03 0.02 0.01 0.01 0.01 0.00 0.00 0.01 0.01 0.01 0.01 0.02 0.02 0.03 0.04 0.04 0.04 0.03 0.03 0.03 0.03 0.02 0.02 0.02 0.03 0.03 0.03 0.03 0.03 0.02 0.01 0.02 0.03 0.03 0.03 0.02 0.02 0.02 0.01 0.02 0.02 0.01 0.00
0.02 0.01 0.00 0.00 0.00 0.01 0.01 0.00 0.00 0.00 0.01 0.01 0.01 0.02 0.02 0.02 0.03 0.03 0.02 0.02 0.02 0.01 0.01 0.01 0.01 0.01 0.02 0.02 0.02 0.02 0.02 0.02 0.02 0.03 0.03 0.02 0.03 0.02 0.02 0.01 0.03 0.02 0.01
0.01 0.01 0.01 0.01 0.01 0.01 0.01 0.02 0.01 0.01 0.00 0.00 0.01 0.01 0.01 0.01 0.02 0.02 0.01 0.01 0.01 0.00 0.01 0.01 0.01 0.01 0.01 0.01 0.01 0.01 0.01 0.01 0.01 0.02 0.02 0.02 0.02 0.02 0.01 0.01 0.02 0.02 0.01
0.01 0.01 0.01 0.01 0.01 0.01 0.01 0.03 0.03 0.02 0.01 0.00 0.00 0.00 0.00 0.00 0.00 0.01 0.01 0.00 0.00 0.00 0.00 0.00 0.00 0.01 0.01 0.01 0.01 0.01 0.00 0.01 0.01 0.01 0.02 0.02 0.03 0.02 0.01 0.01 0.01 0.01 0.01
0.01 0.01 0.01 0.01 0.01 0.01 0.01 0.02 0.02 0.02 0.01 0.00 0.00 0.00 0.00 0.00 0.00 0.01 0.00 0.01 0.01 0.00 0.00 0.00 0.00 0.01 0.01 0.01 0.01 0.01 0.00 0.01 0.01 0.02 0.02 0.03 0.04 0.03 0.01 0.01 0.01 0.01 0.01
0.01 0.01 0.01 0.00 0.00 0.00 0.00 0.00 0.00 0.00 0.00 0.01 0.00 0.00 0.01 0.01 0.01 0.01 0.01 0.01 0.01 0.01 0.01 0.01 0.01 0.01 0.01 0.01 0.01 0.01 0.01 0.01 0.01 0.02 0.03 0.04 0.04 0.04 0.02 0.01 0.02 0.01 0.02
0.01 0.01 0.00 0.01 0.00 0.00 0.00 0.00 0.00 0.00 0.00 0.01 0.01 0.00 0.01 0.01 0.01 0.01 0.03 0.02 0.02 0.01 0.01 0.02 0.03 0.03 0.03 0.03 0.02 0.02 0.01 0.02 0.01 0.01 0.01 0.02 0.02 0.03 0.02 0.02 0.01 0.01 0.02
0.01 0.00 0.00 0.00 0.00 0.00 0.00 0.00 0.00 0.00 0.00 0.01 0.01 0.01 0.01 0.00 0.00 0.01 0.02 0.02 0.02 0.02 0.02 0.02 0.03 0.03 0.03 0.02 0.02 0.02 0.02 0.02 0.01 0.01 0.01 0.01 0.01 0.02 0.03 0.02 0.02 0.01 0.01
0.01 0.00 0.00 0.00 0.00 0.00 0.00 0.00 0.00 0.00 0.00 0.00 0.01 0.00 0.00 0.00 0.00 0.01 0.01 0.01 0.02 0.02 0.02 0.01 0.02 0.02 0.02 0.02 0.02 0.03 0.02 0.01 0.01 0.01 0.01 0.01 0.01 0.02 0.02 0.02 0.02 0.02 0.02
0.01 0.00 0.00 0.00 0.00 0.00 0.00 0.00 0.00 0.00 0.00 0.00 0.00 0.00 0.00 0.00 0.00 0.00 0.00 0.01 0.01 0.01 0.01 0.02 0.01 0.01 0.01 0.02 0.02 0.02 0.01 0.01 0.01 0.01 0.02 0.01 0.02 0.01 0.01 0.01 0.02 0.02 0.01
0.02 0.01 0.00 0.00 0.00 0.00 0.00 0.00 0.00 0.00 0.00 0.00 0.00 0.00 0.00 0.00 0.00 0.00 0.00 0.00 0.01 0.01 0.01 0.01 0.01 0.00 0.01 0.01 0.01 0.01 0.01 0.01 0.01 0.02 0.02 0.01 0.02 0.01 0.01 0.01 0.01 0.01 0.01
0.01 0.00 0.00 0.00 0.00 0.00 0.00 0.00 0.00 0.00 0.00 0.00 0.00 0.00 0.00 0.00 0.00 0.00 0.00 0.00 0.00 0.00 0.00 0.00 0.00 0.00 0.00 0.01 0.01 0.01 0.02 0.02 0.02 0.02 0.01 0.01 0.01 0.01 0.00 0.00 0.00 0.00 0.00
0.01 0.00 0.00 0.00 0.00 0.00 0.00 0.00 0.00 0.00 0.00 0.00 0.00 0.00 0.00 0.00 0.00 0.00 0.00 0.00 0.00 0.00 0.00 0.00 0.00 0.00 0.00 0.01 0.01 0.01 0.02 0.02 0.02 0.02 0.01 0.01 0.01 0.01 0.00 0.00 0.00 0.00 0.00
0.00 0.00 0.00 0.00 0.00 0.00 0.00 0.00 0.00 0.00 0.00 0.00 0.00 0.00 0.00 0.00 0.00 0.00 0.00 0.00 0.00 0.00 0.00 0.00 0.00 0.00 0.00 0.00 0.00 0.01 0.01 0.01 0.01 0.02 0.02 0.01 0.01 0.01 0.00 0.00 0.00 0.00 0.00
0.00 0.00 0.00 0.00 0.00 0.00 0.00 0.00 0.00 0.00 0.00 0.00 0.00 0.00 0.00 0.00 0.00 0.00 0.00 0.00 0.00 0.00 0.00 0.00 0.00 0.00 0.00 0.00 0.00 0.01 0.01 0.01 0.01 0.01 0.01 0.01 0.01 0.01 0.01 0.00 0.00 0.00 0.00
0.00 0.00 0.00 0.00 0.00 0.00 0.00 0.00 0.00 0.00 0.00 0.00 0.00 0.00 0.00 0.00 0.00 0.00 0.00 0.00 0.00 0.00 0.00 0.00 0.00 0.00 0.00 0.00 0.00 0.01 0.00 0.00 0.01 0.01 0.01 0.01 0.01 0.01 0.01 0.00 0.00 0.01 0.01
0.00 0.00 0.00 0.00 0.00 0.00 0.00 0.00 0.00 0.00 0.00 0.00 0.00 0.00 0.00 0.00 0.00 0.00 0.00 0.00 0.00 0.00 0.00 0.00 0.00 0.00 0.00 0.00 0.01 0.00 0.00 0.00 0.01 0.01 0.01 0.01 0.01 0.01 0.01 0.01 0.01 0.01 0.01
0.00 0.00 0.00 0.00 0.00 0.00 0.00 0.00 0.00 0.00 0.00 0.00 0.00 0.00 0.00 0.00 0.00 0.00 0.00 0.00 0.00 0.00 0.00 0.00 0.00 0.00 0.00 0.01 0.01 0.01 0.01 0.01 0.01 0.01 0.01 0.01 0.01 0.02 0.01 0.02 0.01 0.01 0.01
0.00 0.00 0.00 0.00 0.00 0.00 0.00 0.00 0.00 0.00 0.00 0.00 0.00 0.00 0.01 0.01 0.01 0.00 0.00 0.00 0.00 0.00 0.00 0.00 0.00 0.01 0.01 0.01 0.01 0.01 0.01 0.01 0.01 0.02 0.02 0.02 0.03 0.03 0.02 0.01 0.02 0.01 0.01
0.00 0.00 0.00 0.00 0.00 0.00 0.00 0.00 0.00 0.00 0.00 0.00 0.00 0.00 0.00 0.00 0.01 0.01 0.01 0.00 0.00 0.00 0.00 0.00 0.00 0.00 0.01 0.01 0.01 0.01 0.01 0.01 0.02 0.02 0.02 0.03 0.03 0.03 0.02 0.01 0.01 0.01 0.01
0.00 0.00 0.00 0.00 0.00 0.00 0.00 0.00 0.00 0.00 0.00 0.00 0.00 0.01 0.01 0.00 0.01 0.01 0.01 0.01 0.00 0.00 0.00 0.00 0.00 0.00 0.00 0.00 0.00 0.01 0.01 0.01 0.01 0.01 0.01 0.01 0.02 0.02 0.02 0.01 0.01 0.01 0.01
0.00 0.00 0.00 0.00 0.00 0.00 0.00 0.00 0.00 0.00 0.00 0.00 0.00 0.01 0.01 0.01 0.01 0.01 0.01 0.01 0.01 0.01 0.01 0.01 0.00 0.00 0.00 0.00 0.00 0.00 0.01 0.01 0.01 0.01 0.01 0.01 0.01 0.01 0.01 0.01 0.01 0.01 0.02
0.00 0.00 0.00 0.00 0.00 0.00 0.00 0.00 0.00 0.00 0.00 0.00 0.00 0.01 0.01 0.01 0.02 0.02 0.02 0.01 0.02 0.01 0.01 0.01 0.01 0.01 0.01 0.01 0.01 0.01 0.01 0.01 0.00 0.00 0.00 0.01 0.01 0.01 0.01 0.01 0.01 0.01 0.01
MSLP
1022.12 1022.17 1022.24 1022.31 1022.33 1022.29 1022.18 1022.00 1021.76 1021.49 1021.19 1020.87 1020.55 1020.22 1019.88 1019.52 1019.15 1018.75 1018.34 1017.93 1017.51 1017.11 1016.73 1016.38 1016.09 1015.87 1015.73 1015.71 1015.80 1016.02 1016.37 1016.84 1017.39 1017.97 1018.55 1019.06 1019.46 1019.71 1019.81 1019.76 1019.60 1019.38 1019.17
1022.17 1022.20 1022.26 1022.32 1022.35 1022.31 1022.21 1022.03 1021.78 1021.48 1021.13 1020.76 1020.36 1019.96 1019.54 1019.12 1018.70 1018.28 1017.85 1017.44 1017.03 1016.64 1016.28 1015.94 1015.65 1015.42 1015.28 1015.24 1015.33 1015.56 1015.93 1016.44 1017.05 1017.71 1018.39 1019.01 1019.53 1019.92 1020.15 1020.25 1020.22 1020.13 1020.01
1022.17 1022.21 1022.27 1022.33 1022.36 1022.32 1022.21 1022.02 1021.74 1021.41 1021.01 1020.57 1020.10 1019.62 1019.14 1018.66 1018.19 1017.75 1017.32 1016.92 1016.55 1016.19 1015.86 1015.55 1015.28 1015.06 1014.92 1014.88 1014.97 1015.19 1015.57 1016.09 1016.73 1017.45 1018.19 1018.90 1019.53 1020.04 1020.41 1020.63 1020.74 1020.76 1020.75
1022.15 1022.21 1022.29 1022.34 1022.36 1022.31 1022.18 1021.96 1021.66 1021.28 1020.83 1020.33 1019.79 1019.24 1018.69 1018.16 1017.66 1017.20 1016.78 1016.41 1016.07 1015.77 1015.48 1015.23 1015.00 1014.81 1014.68 1014.65 1014.72 1014.94 1015.30 1015.81 1016.45 1017.18 1017.96 1018.73 1019.43 1020.04 1020.52 1020.86 1021.08 1021.21 1021.28
1022.15 1022.23 1022.30 1022.35 1022.34 1022.27 1022.11 1021.86 1021.52 1021.10 1020.60 1020.05 1019.45 1018.85 1018.25 1017.67 1017.15 1016.68 1016.27 1015.93 1015.63 1015.38 1015.17 1014.97 1014.80 1014.65 1014.56 1014.53 1014.61 1014.81 1015.14 1015.62 1016.24 1016.95 1017.72 1018.51 1019.25 1019.92 1020.47 1020.90 1021.21 1021.42 1021.55
1022.18 1022.27 1022.33 1022.35 1022.31 1022.20 1022.01 1021.72 1021.35 1020.90 1020.37 1019.78 1019.15 1018.50 1017.87 1017.27 1016.72 1016.24 1015.85 1015.53 1015.28 1015.08 1014.93 1014.80 1014.69 1014.60 1014.54 1014.54 1014.61 1014.80 1015.10 1015.54 1016.10 1016.77 1017.51 1018.27 1019.02 1019.70 1020.30 1020.78 1021.15 1021.41 1021.58
1022.25 1022.32 1022.36 1022.34 1022.26 1022.11 1021.88 1021.57 1021.17 1020.71 1020.17 1019.57 1018.94 1018.28 1017.63 1017.01 1016.45 1015.97 1015.57 1015.27 1015.05 1014.90 1014.80 1014.73 1014.68 1014.64 1014.63 1014.66 1014.74 1014.91 1015.19 1015.58 1016.08 1016.68 1017.36 1018.08 1018.79 1019.46 1020.06 1020.56 1020.96 1021.25 1021.44
1022.32 1022.36 1022.36 1022.29 1022.16 1021.97 1021.71 1021.40 1021.01 1020.56 1020.05 1019.48 1018.87 1018.23 1017.59 1016.97 1016.41 1015.92 1015.52 1015.22 1015.02 1014.89 1014.82 1014.79 1014.79 1014.81 1014.84 1014.90 1015.00 1015.17 1015.42 1015.76 1016.20 1016.73 1017.33 1017.98 1018.63 1019.25 1019.82 1020.32 1020.71 1021.01 1021.21
1022.36 1022.35 1022.29 1022.17 1022.00 1021.78 1021.52 1021.22 1020.87 1020.48 1020.02 1019.52 1018.96 1018.37 1017.77 1017.18 1016.63 1016.14 1015.73 1015.42 1015.21 1015.09 1015.03 1015.03 1015.06 1015.11 1015.18 1015.27 1015.39 1015.56 1015.79 1016.09 1016.47 1016.93 1017.45 1018.01 1018.59 1019.15 1019.66 1020.12 1020.49 1020.77 1020.97
1022.33 1022.26 1022.14 1021.96 1021.76 1021.53 1021.29 1021.03 1020.75 1020.44 1020.09 1019.68 1019.22 1018.71 1018.17 1017.62 1017.09 1016.61 1016.20 1015.87 1015.64 1015.50 1015.44 1015.44 1015.48 1015.55 1015.65 1015.76 1015.90 1016.07 1016.28 1016.55 1016.88 1017.26 1017.70 1018.18 1018.67 1019.15 1019.60 1020.00 1020.33 1020.59 1020.77
1022.19 1022.06 1021.87 1021.66 1021.44 1021.22 1021.02 1020.83 1020.65 1020.44 1020.21 1019.92 1019.58 1019.17 1018.72 1018.24 1017.75 1017.29 1016.87 1016.53 1016.28 1016.11 1016.02 1016.00 1016.04 1016.11 1016.21 1016.33 1016.48 1016.64 1016.85 1017.09 1017.37 1017.69 1018.06 1018.45 1018.85 1019.25 1019.62 1019.96 1020.24 1020.46 1020.61
1021.95 1021.75 1021.52 1021.28 1021.05 1020.87 1020.72 1020.62 1020.53 1020.45 1020.35 1020.20 1019.98 1019.69 1019.34 1018.93 1018.50 1018.06 1017.66 1017.31 1017.03 1016.83 1016.70 1016.65 1016.66 1016.71 1016.80 1016.92 1017.06 1017.22 1017.41 1017.63 1017.87 1018.14 1018.44 1018.76 1019.08 1019.39 1019.68 1019.95 1020.17 1020.34 1020.46
1021.61 1021.36 1021.09 1020.84 1020.64 1020.49 1020.42 1020.39 1020.41 1020.45 1020.46 1020.44 1020.34 1020.17 1019.91 1019.59 1019.22 1018.83 1018.44 1018.09 1017.79 1017.55 1017.39 1017.30 1017.27 1017.29 1017.35 1017.45 1017.57 1017.72 1017.89 1018.09 1018.30 1018.53 1018.77 1019.02 1019.27 1019.50 1019.72 1019.91 1020.07 1020.20 1020.28
1021.23 1020.94 1020.66 1020.42 1020.24 1020.14 1020.13 1020.18 1020.28 1020.41 1020.52 1020.59 1020.59 1020.51 1020.34 1020.10 1019.79 1019.45 1019.09 1018.74 1018.43 1018.17 1017.98 1017.84 1017.77 1017.74 1017.77 1017.84 1017.94 1018.07 1018.22 1018.39 1018.58 1018.77 1018.97 1019.17 1019.36 1019.53 1019.68 1019.81 1019.91 1019.98 1020.03
1020.84 1020.55 1020.28 1020.06 1019.92 1019.86 1019.89 1019.99 1020.15 1020.32 1020.49 1020.62 1020.68 1020.66 1020.56 1020.38 1020.13 1019.83 1019.50 1019.18 1018.87 1018.60 1018.37 1018.20 1018.08 1018.02 1018.00 1018.03 1018.10 1018.21 1018.34 1018.50 1018.66 1018.84 1019.01 1019.17 1019.31 1019.43 1019.53 1019.60 1019.65 1019.69 1019.70
1020.51 1020.24 1020.00 1019.82 1019.71 1019.69 1019.74 1019.86 1020.02 1020.20 1020.37 1020.51 1020.59 1020.59 1020.52 1020.38 1020.17 1019.92 1019.63 1019.33 1019.04 1018.77 1018.53 1018.33 1018.18 1018.08 1018.02 1018.02 1018.06 1018.14 1018.26 1018.40 1018.56 1018.72 1018.88 1019.01 1019.13 1019.22 1019.28 1019.31 1019.32 1019.32 1019.30
1020.27 1020.04 1019.85 1019.71 1019.63 1019.62 1019.67 1019.77 1019.91 1020.05 1020.18 1020.28 1020.33 1020.33 1020.26 1020.14 1019.96 1019.74 1019.49 1019.23 1018.96 1018.70 1018.47 1018.26 1018.08 1017.95 1017.87 1017.84 1017.85 1017.92 1018.02 1018.15 1018.31 1018.46 1018.61 1018.75 1018.85 1018.92 1018.96 1018.96 1018.95 1018.91 1018.87
1020.11 1019.94 1019.80 1019.70 1019.65 1019.64 1019.68 1019.73 1019.81 1019.88 1019.94 1019.97 1019.96 1019.91 1019.83 1019.70 1019.54 1019.35 1019.14 1018.92 1018.69 1018.46 1018.23 1018.03 1017.85 1017.70 1017.60 1017.54 1017.54 1017.59 1017.68 1017.81 1017.97 1018.13 1018.28 1018.41 1018.51 1018.57 1018.60 1018.59 1018.56 1018.50 1018.44
1020.00 1019.90 1019.81 1019.76 1019.72 1019.71 1019.70 1019.71 1019.70 1019.69 1019.65 1019.59 1019.51 1019.41 1019.29 1019.16 1019.01 1018.85 1018.67 1018.49 1018.30 1018.10 1017.90 1017.71 1017.54 1017.39 1017.28 1017.21 1017.19 1017.23 1017.32 1017.44 1017.59 1017.76 1017.91 1018.05 1018.15 1018.21 1018.23 1018.22 1018.17 1018.10 1018.03
1019.89 1019.85 1019.82 1019.80 1019.77 1019.74 1019.70 1019.64 1019.56 1019.46 1019.33 1019.19 1019.04 1018.88 1018.73 1018.58 1018.44 1018.30 1018.16 1018.02 1017.87 1017.71 1017.54 1017.37 1017.21 1017.06 1016.94 1016.87 1016.85 1016.87 1016.95 1017.07 1017.21 1017.37 1017.53 1017.67 1017.77 1017.83 1017.85 1017.83 1017.78 1017.70 1017.61
1019.73 1019.74 1019.75 1019.75 1019.73 1019.69 1019.61 1019.50 1019.35 1019.17 1018.98 1018.77 1018.56 1018.36 1018.18 1018.03 1017.89 1017.77 1017.67 1017.56 1017.44 1017.31 1017.17 1017.02 1016.87 1016.73 1016.62 1016.53 1016.50 1016.51 1016.58 1016.68 1016.82 1016.97 1017.12 1017.24 1017.34 1017.40 1017.41 1017.39 1017.33 1017.25 1017.16
1019.46 1019.51 1019.55 1019.56 1019.55 1019.49 1019.38 1019.24 1019.04 1018.82 1018.57 1018.32 1018.08 1017.86 1017.67 1017.51 1017.39 1017.28 1017.20 1017.11 1017.02 1016.91 1016.79 1016.65 1016.51 1016.37 1016.25 1016.16 1016.12 1016.12 1016.16 1016.25 1016.37 1016.50 1016.63 1016.74 1016.82 1016.87 1016.87 1016.84 1016.78 1016.70 1016.60
1019.04 1019.11 1019.16 1019.18 1019.17 1019.10 1018.99 1018.83 1018.62 1018.37 1018.11 1017.85 1017.60 1017.37 1017.18 1017.02 1016.90 1016.81 1016.73 1016.65 1016.57 1016.46 1016.34 1016.21 1016.06 1015.92 1015.79 1015.69 1015.63 1015.61 1015.64 1015.70 1015.80 1015.90 1016.01 1016.09 1016.16 1016.18 1016.18 1016.14 1016.07 1015.99 1015.89
1018.46 1018.53 1018.59 1018.62 1018.61 1018.54 1018.43 1018.27 1018.07 1017.83 1017.58 1017.32 1017.08 1016.86 1016.67 1016.52 1016.40 1016.30 1016.21 1016.12 1016.02 1015.91 1015.77 1015.62 1015.46 1015.31 1015.17 1015.06 1014.98 1014.95 1014.96 1015.00 1015.07 1015.15 1015.22 1015.29 1015.33 1015.33 1015.31 1015.26 1015.19 1015.10 1015.01
1017.73 1017.80 1017.86 1017.89 1017.88 1017.83 1017.73 1017.59 1017.40 1017.19 1016.96 1016.73 1016.51 1016.30 1016.12 1015.96 1015.83 1015.71 1015.59 1015.47 1015.34 1015.19 1015.03 1014.86 1014.68 1014.51 1014.36 1014.24 1014.16 1014.11 1014.11 1014.13 1014.18 1014.23 1014.29 1014.32 1014.34 1014.33 1014.29 1014.23 1014.15 1014.06 1013.97
1016.87 1016.95 1017.00 1017.04 1017.04 1017.00 1016.92 1016.80 1016.64 1016.46 1016.26 1016.06 1015.85 1015.66 1015.48 1015.31 1015.15 1015.00 1014.84 1014.68 1014.50 1014.31 1014.11 1013.91 1013.71 1013.53 1013.37 1013.25 1013.16 1013.12 1013.10 1013.12 1013.16 1013.19 1013.23 1013.24 1013.24 1013.21 1013.15 1013.08 1013.00 1012.90 1012.81
Thickness
5616 5613 5608 5604 5601 5598 5595 5592 5590 5587 5585 5583 5580 5578 5577 5575 5573 5572 5571 5570 5569 5569 5569 5569 5569 5570 5570 5570 5571 5571 5572 5572 5573 5573 5574 5576 5578 5580 5583 5586 5588 5591 5594
5611 5606 5601 5597 5594 5591 5588 5586 5583 5581 5579 5577 5575 5573 5571 5569 5567 5566 5565 5565 5564 5563 5563 5563 5564 5565 5565 5565 5565 5566 5566 5566 5567 5568 5569 5570 5571 5573 5576 5578 5581 5584 5586
5605 5600 5595 5591 5588 5585 5583 5580 5577 5575 5573 5571 5569 5567 5564 5563 5561 5560 5559 5559 5558 5557 5557 5557 5558 5559 5559 5559 5559 5560 5561 5561 5561 5562 5563 5563 5565 5567 5569 5572 5574 5576 5579
5600 5595 5590 5587 5584 5580 5577 5575 5572 5569 5567 5565 5563 5561 5559 5557 5556 5555 5554 5553 5552 5552 5552 5553 5553 5554 5554 5554 5554 5555 5556 5556 5556 5557 5558 5558 5559 5561 5562 5565 5567 5569 5572
5595 5590 5586 5583 5580 5576 5573 5570 5567 5564 5562 5560 5558 5556 5554 5553 5551 5550 5549 5548 5547 5547 5548 5548 5549 5550 5550 5550 5551 5551 5551 5551 5551 5552 5553 5554 5554 5555 5557 5558 5560 5563 5565
5592 5587 5583 5580 5576 5572 5569 5566 5563 5560 5558 5556 5554 5552 5550 5548 5547 5546 5545 5543 5542 5542 5543 5544 5545 5546 5546 5547 5547 5547 5548 5548 5548 5548 5549 5550 5550 5551 5552 5553 5554 5557 5560
5588 5584 5581 5577 5573 5569 5566 5563 5560 5557 5554 5552 5550 5548 5546 5544 5544 5543 5541 5540 5538 5538 5538 5539 5541 5541 5541 5542 5543 5544 5544 5545 5545 5545 5546 5547 5547 5548 5549 5549 5550 5552 5554
5585 5582 5578 5574 5570 5566 5563 5560 5557 5555 5552 5550 5547 5545 5543 5542 5541 5541 5539 5537 5536 5535 5535 5535 5536 5537 5537 5538 5539 5540 5541 5542 5542 5543 5544 5545 5545 5546 5546 5547 5548 5548 5550
5583 5580 5576 5572 5568 5564 5561 5558 5555 5553 5550 5548 5546 5543 5541 5540 5540 5538 5537 5535 5533 5533 5532 5532 5533 5533 5534 5534 5535 5536 5538 5539 5540 5541 5542 5542 5543 5544 5544 5544 5545 5547 5549
5583 5579 5575 5571 5566 5563 5559 5557 5554 5551 5549 5547 5545 5543 5541 5539 5538 5537 5535 5533 5532 5531 5531 5531 5531 5531 5532 5532 5533 5533 5535 5536 5537 5539 5540 5541 5542 5542 5543 5543 5544 5545 5546
5582 5578 5574 5570 5566 5562 5559 5556 5553 5550 5548 5546 5544 5543 5541 5539 5538 5536 5534 5532 5531 5530 5530 5530 5530 5530 5531 5532 5532 5532 5533 5534 5535 5536 5538 5539 5540 5541 5542 5542 5543 5544 5545
5580 5577 5573 5569 5566 5563 5559 5556 5553 5550 5548 5546 5544 5543 5542 5540 5539 5537 5535 5534 5532 5530 5530 5530 5530 5531 5531 5532 5532 5533 5533 5533 5534 5535 5537 5538 5539 5541 5541 5542 5542 5543 5544
5579 5575 5572 5569 5566 5562 5559 5556 5553 5551 5548 5547 5545 5543 5543 5542 5541 5539 5538 5535 5533 5531 5531 5531 5531 5532 5532 5533 5534 5534 5534 5534 5535 5535 5537 5538 5539 5540 5541 5541 5542 5543 5543
5578 5575 5572 5569 5566 5563 5559 5557 5555 5552 5550 5549 5547 5546 5544 5543 5543 5541 5539 5537 5535 5534 5533 5533 5533 5533 5533 5534 5534 5535 5535 5535 5535 5536 5537 5539 5539 5540 5541 5541 5542 5543 5543
5578 5575 5572 5569 5566 5563 5561 5559 5557 5556 5553 5551 5550 5548 5546 5546 5546 5543 5540 5539 5537 5536 5535 5535 5536 5536 5536 5536 5536 5537 5537 5537 5537 5538 5538 5539 5541 5541 5542 5542 5541 5542 5543
5578 5575 5572 5569 5567 5564 5562 5561 5561 5559 5558 5556 5554 5552 5550 5549 5548 5546 5544 5542 5540 5539 5537 5538 5538 5538 5537 5538 5538 5539 5540 5540 5540 5540 5541 5541 5542 5542 5543 5542 5542 5542 5543
5580 5577 5574 5571 5568 5566 5564 5562 5562 5563 5562 5561 5559 5557 5555 5553 5552 5550 5548 5547 5545 5542 5541 5541 5541 5541 5541 5541 5541 5541 5542 5542 5542 5542 5542 5543 5543 5543 5543 5544 5544 5543 5544
5582 5579 5576 5574 5571 5569 5567 5565 5563 5562 5562 5563 5563 5562 5560 5558 5556 5554 5552 5550 5549 5547 5546 5546 5546 5545 5545 5545 5545 5544 5545 5545 5545 5544 5544 5544 5544 5544 5545 5545 5544 5544 5544
5585 5582 5579 5576 5574 5571 5570 5568 5566 5565 5564 5564 5565 5565 5564 5562 5561 5558 5556 5553 5554 5553 5552 5551 5550 5550 5549 5549 5548 5548 5547 5547 5547 5546 5546 5546 5546 5546 5546 5546 5545 5543 5542
5587 5585 5582 5579 5577 5575 5573 5571 5570 5569 5568 5567 5567 5567 5567 5564 5564 5563 5560 5558 5557 5558 5557 5556 5555 5554 5553 5553 5552 5551 5551 5550 5550 5549 5549 5548 5548 5547 5547 5547 5546 5545 5544
5590 5587 5584 5582 5580 5578 5576 5574 5573 5571 5571 5570 5571 5571 5568 5567 5567 5566 5565 5564 5563 5562 5561 5560 5559 5558 5557 5556 5555 5554 5553 5552 5551 5551 5550 5549 5549 5548 5548 5547 5546 5545 5544
5592 5589 5587 5584 5582 5580 5578 5577 5575 5574 5573 5573 5574 5574 5572 5570 5570 5570 5569 5569 5568 5566 5565 5563 5563 5562 5561 5559 5558 5556 5555 5554 5553 5552 5551 5550 5549 5548 5548 5547 5545 5544 5543
5594 5592 5589 5587 5584 5582 5580 5579 5577 5576 5575 5575 5575 5575 5575 5574 5573 5572 5572 5572 5571 5570 5569 5567 5565 5565 5564 5562 5561 5559 5557 5557 5556 5554 5552 5551 5549 5548 5547 5545 5544 5543 5542
5597 5594 5592 5589 5586 5584 5582 5580 5579 5578 5577 5577 5577 5576 5576 5575 5575 5575 5575 5574 5573 5572 5571 5569 5568 5567 5566 5565 5563 5561 5559 5558 5556 5554 5552 5550 5549 5547 5545 5544 5542 5541 5540
5598 5596 5593 5591 5588 5585 5583 5582 5580 5579 5579 5578 5578 5577 5577 5576 5576 5576 5576 5575 5574 5573 5572 5571 5570 5568 5567 5566 5564 5562 5561 5558 5556 5553 5550 5548 5547 5545 5544 5542 5540 5539 5537
5600 5597 5594 5592 5589 5586 5584 5582 5581 5580 5579 5579 5578 5578 5577 5577 5576 5576 5576 5575 5574 5573 5572 5571 5570 5569 5567 5565 5563 5561 5559 5556 5554 5551 5548 5546 5544 5543 5541 5539 5538 5536 5534